Home > Time Zones > World Clock > Weather > Japan > Naha > Past weeks

Flag for Japan Weather past 2 weeks in Naha, Okinawa, Japan

Now
77 °F

Partly sunny.


Feels Like: 78 °F
Forecast: 74 / 80 °F
Wind: 12 mph from East

Location: Naha Airport

Current Time: May 25, 2015 at 6:48:49 PM

Latest Report: May 25, 2015 at 6:30 PM


Visibility: N/A

Pressure: 29.71 "Hg

Humidity: 89%

Dew point: 73 °F

Location of NahaLocation

Historic Weather in Naha — Graph

°F

Naha temperature yesterday

Maximum temperature yesterday: 77 °F (at 12:00 AM)
Minimum temperature yesterday: 75 °F (at 5:00 AM)
Average temperature yesterday: 76 °F

Past Weeks' High & Low Weather Summary

 TemperatureHumidityPressure
High86 °F (May 11, 1:00 PM)100% (May 14, 11:30 PM)30.01 "Hg (May 14, 11:30 PM)
Low66 °F (May 22, 12:30 AM)54% (May 21, 1:00 PM)29.62 "Hg (May 24, 3:00 AM)
Average77 °F88%29.83 "Hg
* Reported May 10 5:00 PM — May 25 5:30 PM, Naha, Weather by CustomWeather, © 2015

Note: Actual official high and low records may vary slightly from our data, if they occured in-between our weather recording intervals... More about our weather records

Advertising

Naha weather history for previous 24 hours

 ConditionsComfort  
Time TempWeatherWind HumidityBarometerVisibility
5:30 PM
Mon, May 25
77 °FSprinkles. Partly sunny.9 mph89%29.68 "HgN/A
5:00 PM79 °FSprinkles. Partly sunny.9 mph84%29.68 "HgN/A
4:30 PM79 °FPartly sunny.12 mph84%29.68 "HgN/A
4:00 PM79 °FPartly sunny.9 mph84%29.68 "HgN/A
3:30 PM79 °FPartly sunny.9 mph89%29.68 "HgN/A
3:00 PM81 °FBroken clouds.7 mph84%29.68 "HgN/A
2:30 PM81 °FBroken clouds.9 mph84%29.68 "HgN/A
2:00 PM81 °FBroken clouds.8 mph84%29.68 "HgN/A
1:30 PM81 °FBroken clouds.8 mph84%29.68 "HgN/A
1:00 PM81 °FBroken clouds.10 mph84%29.71 "HgN/A
12:30 PM81 °FBroken clouds.8 mph84%29.71 "HgN/A
12:00 PM81 °FPartly sunny.7 mph84%29.71 "HgN/A
11:30 AM82 °FPartly sunny.6 mph84%29.71 "HgN/A
11:00 AM81 °FPartly sunny.5 mph84%29.71 "HgN/A
10:30 AM79 °FBroken clouds.6 mph89%29.71 "HgN/A
10:00 AM79 °FBroken clouds.7 mph89%29.71 "HgN/A
9:30 AM79 °FBroken clouds.3 mph94%29.71 "HgN/A
9:00 AM77 °FPartly sunny.5 mph100%29.68 "HgN/A
8:30 AM75 °FBroken clouds.7 mph100%29.68 "HgN/A
8:00 AM75 °FBroken clouds.8 mph100%29.68 "Hg6 mi
7:49 AM75 °FPartly sunny.7 mph100%29.68 "HgN/A
7:30 AM77 °FBroken clouds.5 mph100%29.68 "HgN/A
7:00 AM75 °FBroken clouds.6 mph100%29.65 "HgN/A
6:30 AM75 °FLight rain. Partly sunny.5 mph100%29.65 "Hg2 mi
6:00 AM75 °FPartly sunny.1 mph100%29.65 "Hg5 mi
5:30 AM75 °FPassing clouds.2 mph100%29.65 "Hg6 mi
5:00 AM75 °FPartly cloudy.No wind100%29.65 "HgN/A
4:30 AM75 °FPassing clouds.1 mph100%29.65 "Hg6 mi
4:00 AM75 °FScattered showers. Passing clouds.1 mph100%29.65 "Hg5 mi
3:30 AM75 °FScattered showers. Partly cloudy.3 mph100%29.62 "Hg4 mi
3:00 AM75 °FRain showers. Partly cloudy.6 mph100%29.62 "Hg1 mi
2:30 AM75 °FLight rain. Partly cloudy.1 mph100%29.65 "Hg4 mi
2:00 AM75 °FLight rain. Fog.2 mph100%29.65 "Hg2 mi
1:30 AM75 °FRain. Fog.2 mph100%29.65 "Hg2 mi
1:00 AM75 °FFog.No wind100%29.65 "Hg1 mi
12:30 AM75 °FLight rain. Fog.2 mph100%29.68 "Hg1 mi
12:00 AM75 °FLight rain. Passing clouds.1 mph100%29.68 "HgN/A
11:30 PM
Sun, May 24
75 °FPassing clouds.1 mph100%29.68 "HgN/A
11:00 PM75 °FPassing clouds.2 mph94%29.71 "HgN/A
10:30 PM75 °FPassing clouds.2 mph100%29.71 "HgN/A
10:00 PM75 °FScattered showers. Passing clouds.2 mph100%29.71 "Hg4 mi
9:30 PM75 °FSprinkles. Fog.1 mph100%29.71 "Hg3 mi
9:00 PM75 °FSprinkles. Passing clouds.3 mph94%29.71 "HgN/A
8:30 PM75 °FSprinkles. Partly cloudy.3 mph100%29.68 "HgN/A
8:00 PM75 °FSprinkles. Passing clouds.6 mph100%29.68 "HgN/A
7:30 PM75 °FSprinkles. Partly cloudy.7 mph100%29.68 "HgN/A
7:00 PM75 °FLight rain. Partly sunny.8 mph100%29.68 "HgN/A
6:30 PM75 °FLight rain. Broken clouds.8 mph100%29.65 "HgN/A
6:00 PM75 °FLight rain. Partly sunny.7 mph100%29.65 "HgN/A
Weather by CustomWeather, © 2015

See weather overviewHow to use our weather pages